Weather History for Manitowoc, WI

Change the Weather History Date:

Sunday, April 7, 2013

  Actual Average Record
Temperature  
Mean Temperature 42 °F -  
Max Temperature 50 °F 50 °F 80 °F (1991)
Min Temperature 35 °F 30 °F 16 °F (1982)
Degree Days  
Heating Degree Days 22    
Moisture  
Dew Point 31 °F    
Average Humidity 69    
Maximum Humidity 87    
Minimum Humidity 50    
Precipitation  
Precipitation 0.01 in - - ()
Sea Level Pressure  
Sea Level Pressure 29.84 in    
Wind  
Wind Speed 12 mph (WSW)    
Max Wind Speed 23 mph    
Max Gust Speed 30 mph    
Visibility 10 miles    
Events      
Averages and records for this station are not official NWS values.
T = Trace of Precipitation, MM = Missing Value Source: NWS Daily Summary

Daily Weather History Graph

Daily Weather History Graph

Search for Another Location

Airport:

Trip Planner

Search our weather history database for the weather conditions in past years. The results will help you decide how hot, cold, wet, or windy it might be!

Date:

Astronomy

Apr. 07, 2013 Rise Set
Actual Time 6:20 AM CDT 7:25 PM CDT
Civil Twilight 5:51 AM CDT 7:55 PM CDT
Nautical Twilight 5:15 AM CDT 8:30 PM CDT
Astronomical Twilight 4:38 AM CDT 9:07 PM CDT
Moon 4:43 AM CDT (4/7) 4:52 PM CDT (4/7)
Length of Visible Light 14h 03m
Length of Day
13h 04m
Waning Crescent, 8% of the Moon is Illuminated
Apr 7
Waning Crescent
Apr 10
New
Apr 18
First Quarter
Apr 25
Full
May 2
Last Quarter

Hourly Weather History & Observations

Time (CDT) Temp. Windchill Dew Point Humidity Pressure Visibility Wind Dir Wind Speed Gust Speed Precip Events Conditions
12:15 AM 50.0 °F - 46.4 °F 87% 29.49 in 10.0 mi SW 10.4 mph - 0.01 in   Overcast
12:35 AM 50.0 °F - 46.4 °F 87% 29.49 in 10.0 mi SW 10.4 mph - 0.01 in   Overcast
12:55 AM 50.0 °F - 46.4 °F 87% 29.49 in 9.0 mi WSW 11.5 mph 18.4 mph 0.01 in   Overcast
1:15 AM 50.0 °F - 44.6 °F 82% 29.50 in 10.0 mi West 15.0 mph 20.7 mph N/A   Overcast
1:35 AM 48.2 °F - 44.6 °F 87% 29.51 in 10.0 mi West 15.0 mph 20.7 mph N/A   Overcast
1:55 AM 46.4 °F 40.1 °F 41.0 °F 81% 29.51 in 10.0 mi West 15.0 mph 25.3 mph N/A   Overcast
2:15 AM 46.4 °F 39.2 °F 39.2 °F 76% 29.53 in 10.0 mi West 18.4 mph 23.0 mph N/A   Overcast
2:55 AM 42.8 °F 34.0 °F 35.6 °F 76% 29.55 in 10.0 mi West 20.7 mph 27.6 mph N/A   Overcast
3:15 AM 42.8 °F 33.8 °F 35.6 °F 76% 29.56 in 10.0 mi West 21.9 mph 29.9 mph N/A   Overcast
3:35 AM 42.8 °F 33.8 °F 35.6 °F 76% 29.58 in 10.0 mi West 21.9 mph 26.5 mph N/A   Overcast
3:55 AM 41.0 °F 32.5 °F 33.8 °F 76% 29.60 in 10.0 mi WNW 17.3 mph 28.8 mph N/A   Overcast
4:15 AM 41.0 °F 32.5 °F 33.8 °F 76% 29.61 in 10.0 mi WNW 17.3 mph 26.5 mph N/A   Overcast
4:35 AM 39.2 °F 29.6 °F 30.2 °F 70% 29.63 in 10.0 mi WNW 19.6 mph 26.5 mph N/A   Overcast
4:55 AM 39.2 °F 29.8 °F 30.2 °F 70% 29.65 in 10.0 mi WNW 18.4 mph 28.8 mph N/A   Overcast
5:15 AM 39.2 °F 28.7 °F 30.2 °F 70% 29.67 in 10.0 mi WNW 23.0 mph 27.6 mph N/A   Overcast
5:35 AM 37.4 °F 28.2 °F 30.2 °F 75% 29.68 in 10.0 mi West 16.1 mph 23.0 mph N/A   Overcast
5:55 AM 37.4 °F 27.5 °F 30.2 °F 75% 29.69 in 10.0 mi WNW 18.4 mph 24.2 mph N/A   Mostly Cloudy
6:15 AM 37.4 °F 28.2 °F 30.2 °F 75% 29.71 in 10.0 mi WNW 16.1 mph 23.0 mph N/A   Overcast
6:35 AM 37.4 °F 26.9 °F 28.4 °F 70% 29.72 in 10.0 mi WNW 20.7 mph 29.9 mph N/A   Overcast
6:55 AM 37.4 °F 28.2 °F 28.4 °F 70% 29.74 in 10.0 mi WNW 16.1 mph 25.3 mph N/A   Overcast
7:15 AM 37.4 °F 29.8 °F 28.4 °F 70% 29.76 in 10.0 mi WNW 11.5 mph 23.0 mph N/A   Mostly Cloudy
7:35 AM 37.4 °F 29.3 °F 28.4 °F 70% 29.77 in 10.0 mi WNW 12.7 mph 20.7 mph N/A   Mostly Cloudy
7:55 AM 37.4 °F 30.3 °F 28.4 °F 70% 29.79 in 10.0 mi West 10.4 mph 19.6 mph N/A   Overcast
8:15 AM 37.4 °F 28.9 °F 28.4 °F 70% 29.81 in 10.0 mi WNW 13.8 mph - N/A   Overcast
8:35 AM 37.4 °F 28.5 °F 28.4 °F 70% 29.83 in 10.0 mi West 15.0 mph 19.6 mph N/A   Overcast
8:55 AM 37.4 °F 28.5 °F 28.4 °F 70% 29.83 in 10.0 mi WNW 15.0 mph - N/A   Overcast
9:15 AM 37.4 °F 28.5 °F 28.4 °F 70% 29.84 in 10.0 mi WNW 15.0 mph - N/A   Overcast
9:35 AM 39.2 °F 31.2 °F 28.4 °F 65% 29.85 in 10.0 mi WNW 13.8 mph 19.6 mph N/A   Overcast
9:55 AM 39.2 °F 30.8 °F 28.4 °F 65% 29.86 in 10.0 mi West 15.0 mph 19.6 mph N/A   Overcast
10:15 AM 39.2 °F 31.6 °F 28.4 °F 65% 29.87 in 10.0 mi WNW 12.7 mph 19.6 mph N/A   Overcast
10:35 AM 39.2 °F 32.5 °F 28.4 °F 65% 29.88 in 10.0 mi WNW 10.4 mph - N/A   Overcast
10:55 AM 41.0 °F 33.5 °F 28.4 °F 61% 29.89 in 10.0 mi WNW 13.8 mph - N/A   Overcast
11:15 AM 41.0 °F 34.3 °F 28.4 °F 61% 29.90 in 10.0 mi WNW 11.5 mph - N/A   Overcast
11:35 AM 41.0 °F 34.3 °F 28.4 °F 61% 29.91 in 10.0 mi WNW 11.5 mph - N/A   Overcast
11:55 AM 41.0 °F 34.3 °F 28.4 °F 61% 29.92 in 10.0 mi NW 11.5 mph - N/A   Overcast
12:15 PM 41.0 °F 34.7 °F 28.4 °F 61% 29.93 in 10.0 mi NW 10.4 mph - N/A   Overcast
12:35 PM 42.8 °F 37.0 °F 28.4 °F 57% 29.93 in 10.0 mi West 10.4 mph - N/A   Overcast
12:55 PM 42.8 °F 36.6 °F 28.4 °F 57% 29.93 in 10.0 mi West 11.5 mph - N/A   Overcast
1:15 PM 42.8 °F 37.5 °F 28.4 °F 57% 29.94 in 10.0 mi West 9.2 mph - N/A   Overcast
1:55 PM 44.6 °F 39.7 °F 28.4 °F 53% 29.95 in 10.0 mi West 9.2 mph - N/A   Overcast
2:15 PM 44.6 °F 38.8 °F 28.4 °F 53% 29.96 in 10.0 mi West 11.5 mph - N/A   Overcast
2:35 PM 42.8 °F 37.0 °F 30.2 °F 61% 29.96 in 10.0 mi West 10.4 mph 17.3 mph N/A   Overcast
2:55 PM 44.6 °F 43.1 °F 30.2 °F 57% 29.96 in 10.0 mi WNW 3.5 mph - N/A   Overcast
3:15 PM 44.6 °F 39.2 °F 30.2 °F 57% 29.95 in 10.0 mi West 10.4 mph - N/A   Overcast
3:35 PM 44.6 °F 41.4 °F 30.2 °F 57% 29.96 in 10.0 mi West 5.8 mph - N/A   Overcast
3:55 PM 44.6 °F - 28.4 °F 53% 29.95 in 10.0 mi Calm Calm - N/A   Overcast
4:15 PM 44.6 °F - 28.4 °F 53% 29.95 in 10.0 mi Calm Calm - N/A   Overcast
4:35 PM 44.6 °F 42.2 °F 30.2 °F 57% 29.96 in 10.0 mi West 4.6 mph - N/A   Mostly Cloudy
4:55 PM 44.6 °F - 28.4 °F 53% 29.96 in 10.0 mi Calm Calm - N/A   Clear
5:15 PM 46.4 °F - 28.4 °F 50% 29.96 in 10.0 mi Calm Calm - N/A   Clear
5:35 PM 44.6 °F 40.7 °F 30.2 °F 57% 29.96 in 10.0 mi SSE 6.9 mph - N/A   Clear
5:55 PM 42.8 °F 37.0 °F 30.2 °F 61% 29.96 in 10.0 mi SSE 10.4 mph - N/A   Clear
6:15 PM 42.8 °F 38.0 °F 28.4 °F 57% 29.97 in 10.0 mi SSE 8.1 mph - N/A   Clear
6:35 PM 42.8 °F 37.5 °F 30.2 °F 61% 29.97 in 10.0 mi SSE 9.2 mph - N/A   Clear
6:55 PM 41.0 °F 35.8 °F 28.4 °F 61% 29.97 in 10.0 mi SSE 8.1 mph - N/A   Clear
7:15 PM 39.2 °F 33.6 °F 28.4 °F 65% 29.98 in 10.0 mi SSE 8.1 mph - N/A   Clear
7:35 PM 39.2 °F 33.0 °F 28.4 °F 65% 29.97 in 10.0 mi SSE 9.2 mph - N/A   Clear
7:55 PM 37.4 °F 31.4 °F 28.4 °F 70% 29.98 in 10.0 mi SSE 8.1 mph - N/A   Clear
8:15 PM 37.4 °F 32.8 °F 28.4 °F 70% 29.98 in 10.0 mi SE 5.8 mph - N/A   Clear
8:35 PM 37.4 °F 32.8 °F 30.2 °F 75% 29.99 in 10.0 mi ESE 5.8 mph - N/A   Clear
8:55 PM 35.6 °F 30.7 °F 30.2 °F 81% 29.99 in 10.0 mi SE 5.8 mph - N/A   Clear
9:15 PM 35.6 °F 30.7 °F 30.2 °F 81% 30.00 in 10.0 mi SE 5.8 mph - N/A   Clear
9:35 PM 35.6 °F 30.7 °F 30.2 °F 81% 29.99 in 10.0 mi ESE 5.8 mph - N/A   Clear
9:55 PM 35.6 °F 30.7 °F 30.2 °F 81% 29.99 in 10.0 mi ESE 5.8 mph - N/A   Clear
10:15 PM 35.6 °F 30.7 °F 30.2 °F 81% 30.00 in 10.0 mi SE 5.8 mph - N/A   Clear
10:35 PM 35.6 °F 30.7 °F 30.2 °F 81% 29.99 in 10.0 mi SE 5.8 mph - N/A   Clear
10:55 PM 35.6 °F 29.2 °F 28.4 °F 75% 29.99 in 10.0 mi SSE 8.1 mph - N/A   Clear
11:15 PM 35.6 °F 29.2 °F 30.2 °F 81% 29.98 in 10.0 mi SE 8.1 mph - N/A   Clear
11:35 PM 35.6 °F 29.2 °F 28.4 °F 75% 29.97 in 10.0 mi SE 8.1 mph - N/A   Clear
11:55 PM 35.6 °F 29.9 °F 28.4 °F 75% 29.96 in 10.0 mi SE 6.9 mph - N/A   Clear